Weather History for Jackson, WY

Change the Weather History Date:

Wednesday, March 6, 2013

  Actual Average Record
Temperature  
Mean Temperature 18 °F -  
Max Temperature 33 °F 36 °F 50 °F (1986)
Min Temperature 3 °F 10 °F -21 °F (1976)
Degree Days  
Heating Degree Days 47    
Moisture  
Dew Point 14 °F    
Average Humidity 89    
Maximum Humidity 100    
Minimum Humidity 64    
Precipitation  
Precipitation 0.01 in - - ()
Sea Level Pressure  
Sea Level Pressure 29.92 in    
Wind  
Wind Speed 9 mph (NE)    
Max Wind Speed 14 mph    
Max Gust Speed 23 mph    
Visibility 8 miles    
Events Snow    
Averages and records for this station are not official NWS values.
T = Trace of Precipitation, MM = Missing Value Source: NWS Daily Summary

Daily Weather History Graph

Daily Weather History Graph

Search for Another Location

Airport:

Trip Planner

Search our weather history database for the weather conditions in past years. The results will help you decide how hot, cold, wet, or windy it might be!

Date:

Astronomy

Mar. 06, 2013 Rise Set
Actual Time 6:50 AM MST 6:18 PM MST
Civil Twilight 6:21 AM MST 6:47 PM MST
Nautical Twilight 5:48 AM MST 7:20 PM MST
Astronomical Twilight 5:15 AM MST 7:53 PM MST
Moon 3:10 AM MST (3/6) 12:56 PM MST (3/6)
Length of Visible Light 12h 25m
Length of Day
11h 28m
Waning Crescent, 29% of the Moon is Illuminated
Mar 6
Waning Crescent
Mar 11
New
Mar 19
First Quarter
Mar 27
Full
Apr 2
Last Quarter

Hourly Weather History & Observations

Time (MST) Temp. Windchill Dew Point Humidity Pressure Visibility Wind Dir Wind Speed Gust Speed Precip Events Conditions
12:15 AM 8.6 °F -6.3 °F 5.0 °F 85% 30.01 in 10.0 mi North 11.5 mph - N/A   Clear
12:35 AM 8.6 °F -7.0 °F 5.0 °F 85% 30.01 in 10.0 mi North 12.7 mph - N/A   Clear
12:55 AM 8.6 °F -7.0 °F 6.8 °F 92% 30.01 in 10.0 mi North 12.7 mph - N/A   Clear
1:15 AM 8.6 °F -5.5 °F 5.0 °F 85% 30.01 in 10.0 mi North 10.4 mph - N/A   Clear
1:35 AM 6.8 °F -8.6 °F 5.0 °F 92% 30.01 in 10.0 mi North 11.5 mph - N/A   Clear
1:55 AM 6.8 °F -9.3 °F 3.2 °F 85% 30.01 in 10.0 mi North 12.7 mph - N/A   Clear
2:15 AM 6.8 °F -10.0 °F 3.2 °F 85% 30.00 in 10.0 mi North 13.8 mph - N/A   Clear
2:35 AM 6.8 °F -8.6 °F 5.0 °F 92% 29.99 in 10.0 mi North 11.5 mph - N/A   Clear
2:55 AM 6.8 °F -3.5 °F 5.0 °F 92% 29.99 in 10.0 mi NNE 5.8 mph - N/A   Clear
3:15 AM 6.8 °F -7.8 °F 3.2 °F 85% 29.98 in 10.0 mi North 10.4 mph - N/A   Clear
3:55 AM 5.0 °F -5.6 °F 3.2 °F 92% 29.97 in 10.0 mi NNE 5.8 mph - N/A   Clear
4:15 AM 5.0 °F -2.1 °F 3.2 °F 92% 29.97 in 10.0 mi NE 3.5 mph - N/A   Clear
4:35 AM 5.0 °F -8.1 °F 3.2 °F 92% 29.97 in 10.0 mi NNE 8.1 mph - N/A   Clear
4:55 AM 5.0 °F -9.1 °F 3.2 °F 92% 29.97 in 10.0 mi North 9.2 mph - N/A   Clear
5:15 AM 3.2 °F -10.3 °F 3.2 °F 100% 29.97 in 10.0 mi North 8.1 mph - N/A   Mostly Cloudy
5:35 AM 5.0 °F -9.1 °F 3.2 °F 92% 29.96 in 10.0 mi North 9.2 mph - N/A   Overcast
5:55 AM 5.0 °F -9.1 °F 3.2 °F 92% 29.95 in 10.0 mi North 9.2 mph - N/A   Overcast
6:15 AM 6.8 °F -6.9 °F 3.2 °F 85% 29.95 in 10.0 mi North 9.2 mph - N/A   Mostly Cloudy
6:51 AM 5.0 °F -2.1 °F 3.2 °F 92% 29.94 in 10.0 mi North 3.5 mph - N/A   Clear
7:51 AM 6.8 °F -0.1 °F 5.0 °F 92% 29.93 in 10.0 mi NE 3.5 mph - N/A   Mostly Cloudy
8:51 AM 10.4 °F 2.2 °F 8.6 °F 92% 29.92 in 10.0 mi North 4.6 mph - N/A   Overcast
9:55 AM 15.8 °F - 10.4 °F 79% 29.90 in 10.0 mi Calm Calm - N/A   Overcast
10:51 AM 17.6 °F - 12.2 °F 79% 29.88 in 10.0 mi Calm Calm - N/A   Overcast
11:51 AM 23.0 °F - 14.0 °F 68% 29.85 in 10.0 mi Calm Calm - N/A Snow Snow
12:52 PM 26.6 °F - 15.8 °F 64% 29.83 in 10.0 mi Calm Calm - N/A Snow Snow Showers
1:22 PM 28.4 °F 23.3 °F 19.4 °F 69% 29.83 in 1.5 mi SSE 4.6 mph - N/A Snow Light Snow
1:36 PM 26.6 °F 19.1 °F 21.2 °F 80% 29.82 in 3.0 mi SE 6.9 mph - N/A Snow Light Snow
2:03 PM 26.6 °F 21.2 °F 24.8 °F 93% 29.81 in 2.0 mi SSE 4.6 mph - N/A Snow Light Snow
3:51 PM 30.2 °F 23.4 °F 30.2 °F 100% 29.80 in 3.0 mi South 6.9 mph - N/A Snow Light Snow
4:05 PM 28.4 °F - 28.4 °F 100% 29.78 in 7.0 mi Calm Calm - N/A   Scattered Clouds
6:52 PM 33.8 °F 24.3 °F 30.2 °F 87% 29.80 in 3.0 mi WSW 13.8 mph 23.0 mph N/A Snow Light Snow
7:54 PM 33.8 °F 28.6 °F 30.2 °F 87% 29.83 in 3.0 mi South 5.8 mph - N/A Snow Light Snow
8:15 PM 32.0 °F 26.4 °F 30.2 °F 93% 29.84 in 2.0 mi South 5.8 mph - N/A Snow Light Snow
8:55 PM 30.2 °F 22.6 °F 30.2 °F 100% 29.86 in 2.0 mi SE 8.1 mph - N/A   Overcast
9:15 PM 30.2 °F 20.2 °F 30.2 °F 100% 29.88 in 1.8 mi South 12.7 mph - N/A   Overcast
9:35 PM 30.2 °F 21.3 °F 28.4 °F 93% 29.90 in 2.5 mi South 10.4 mph 20.7 mph N/A   Overcast
9:55 PM 30.2 °F - 28.4 °F 93% 29.91 in 5.0 mi Calm Calm - 0.01 in   Overcast
10:15 PM 28.4 °F - 26.6 °F 93% 29.90 in 4.0 mi Calm Calm - N/A   Overcast
10:35 PM 28.4 °F 18.5 °F 26.6 °F 93% 29.92 in 5.0 mi South 11.5 mph - N/A   Overcast
10:55 PM 28.4 °F 17.5 °F 26.6 °F 93% 29.91 in 10.0 mi SSE 13.8 mph - N/A   Mostly Cloudy
11:15 PM 28.4 °F 18.5 °F 26.6 °F 93% 29.91 in 10.0 mi SSE 11.5 mph - N/A   Overcast
11:35 PM 28.4 °F 20.4 °F 24.8 °F 86% 29.91 in 10.0 mi SSE 8.1 mph - N/A   Overcast